Home > Weather > Montfoort > Past weeks

Flag for Netherlands Past Weather in Montfoort, Netherlands — Yesterday and Last 2 Weeks

Now
53 °F

Passing clouds.


Feels Like: 53 °F
Forecast: 58 / 68 °F
Wind: 2 mph from North

Location: De Bilt

Current Time: May 28, 2016 at 6:09:26 AM

Latest Report: May 28, 2016 at 5:00 AM


Visibility: 1 mi

Pressure: 29.99 "Hg

Humidity: 99%

Dew Point: 53 °F

Location of MontfoortLocation

Past Weather in Montfoort — Graph

°F

Montfoort Temperature Yesterday

Maximum temperature yesterday: 68 °F (at 3:00 PM)
Minimum temperature yesterday: 51 °F (at 5:00 AM)
Average temperature yesterday: 61 °F

High & Low Weather Summary for the Past Weeks

 TemperatureHumidityPressure
High73 °F (May 21, 6:00 PM)100% (May 26, 2:00 AM)30.15 "Hg (May 26, 2:00 AM)
Low40 °F (May 16, 3:00 AM)32% (May 13, 1:00 PM)29.61 "Hg (May 13, 5:00 AM)
Average55 °F76%29.94 "Hg
* Reported May 13 5:00 AM — May 28 5:00 AM, Montfoort, Weather by CustomWeather, © 2016

Note: Actual official high and low records may vary slightly from our data, if they occured in-between our weather recording intervals... More about our weather records

Advertising

Montfoort Weather History for the Previous 24 Hours

Scroll right to see more
 ConditionsComfort  
Time TempWeatherWind HumidityBarometerVisibility
5:00 AM
Sat, May 28
53 °FPassing clouds.2 mph99%29.99 "Hg1 mi
4:00 AM54 °FClear.2 mph97%29.99 "Hg2 mi
3:00 AM55 °FPassing clouds.2 mph94%29.99 "Hg2 mi
2:00 AM56 °FFog.2 mph91%30.00 "Hg4 mi
1:00 AM57 °FFog.3 mph88%30.00 "Hg6 mi
12:00 AM58 °FOvercast.3 mph84%30.01 "Hg8 mi
11:00 PM
Fri, May 27
60 °FOvercast.5 mph81%30.01 "Hg12 mi
10:00 PM61 °FOvercast.3 mph77%30.02 "Hg12 mi
9:00 PM63 °FScattered clouds.5 mph73%30.01 "Hg11 mi
8:00 PM65 °FPassing clouds.6 mph63%30.00 "Hg11 mi
7:00 PM68 °FPassing clouds.6 mph58%29.99 "Hg9 mi
6:00 PM68 °FPassing clouds.5 mph62%29.99 "Hg8 mi
5:00 PM68 °FOvercast.5 mph61%30.00 "Hg7 mi
4:00 PM68 °FOvercast.5 mph61%30.00 "Hg7 mi
3:00 PM68 °FOvercast.5 mph63%30.01 "Hg7 mi
2:00 PM68 °FOvercast.3 mph67%30.01 "Hg8 mi
1:00 PM66 °FOvercast.5 mph65%30.01 "Hg7 mi
12:00 PM65 °FOvercast.5 mph66%30.02 "Hg6 mi
11:00 AM64 °FOvercast.3 mph67%30.02 "Hg7 mi
10:00 AM62 °FOvercast.5 mph73%30.02 "Hg6 mi
9:00 AM60 °FFog.3 mph79%30.02 "Hg6 mi
8:00 AM56 °FPassing clouds.3 mph86%30.01 "Hg4 mi
7:00 AM53 °FOvercast.2 mph93%30.01 "Hg2 mi
6:00 AM51 °FOvercast.3 mph96%30.01 "Hg2 mi
Weather by CustomWeather, © 2016

See weather overviewHow to use our weather pages